Theta_e
289 291 290 290 291 291 292 292 292 295 296 296 297 297 298 298 299 299 300 302 305 308 312 318 324 323 320
286 287 288 289 290 289 291 291 291 294 296 296 296 297 297 297 298 298 298 299 300 303 307 311 323 322 320
284 287 287 289 288 289 289 290 292 295 295 295 296 296 296 297 297 297 297 297 299 301 304 307 318 320 319
284 284 286 287 288 286 287 289 288 291 294 295 295 296 296 296 296 297 296 297 299 300 300 303 307 316 317
283 283 283 284 284 286 285 287 288 290 290 291 290 291 292 294 295 296 296 297 301 302 302 301 304 312 315
282 282 283 284 285 284 284 284 282 290 287 287 290 288 290 291 296 295 296 298 299 300 301 300 303 309 312
281 282 282 283 284 284 284 284 283 286 286 283 287 287 289 291 294 295 296 298 298 298 299 302 303 307 310
283 283 284 285 284 284 284 284 284 285 286 281 286 285 288 290 293 295 296 295 296 297 298 299 302 304 307
288 288 288 288 288 285 283 282 280 282 286 285 285 285 286 287 290 296 294 294 295 295 296 299 299 302 306
284 286 287 287 288 286 284 281 281 281 286 284 284 285 283 289 290 290 290 293 293 293 294 297 297 299 308
283 284 285 285 285 286 286 284 282 281 286 286 284 284 283 283 286 288 289 288 288 290 294 294 296 297 303
284 283 283 284 284 285 286 286 286 285 286 285 283 282 283 281 281 285 286 287 287 289 289 293 294 295 296
281 282 283 284 284 284 285 286 285 285 287 285 284 283 283 281 280 282 283 284 286 286 288 288 289 291 292
281 282 283 283 283 284 282 283 282 282 285 286 285 283 282 282 281 280 282 280 285 285 286 287 288 291 292
280 280 281 281 281 283 282 280 281 281 282 283 285 285 284 284 281 281 282 282 283 284 285 284 286 288 291
280 280 280 280 280 281 281 280 279 280 280 282 283 282 281 282 285 281 282 282 283 284 284 282 282 286 290
280 279 279 280 279 279 280 280 280 280 280 281 280 278 277 276 280 287 281 282 282 283 284 284 282 284 288
Wind_Speed
6 8 9 9 7 9 10 9 7 15 16 17 17 17 19 19 21 21 21 21 22 22 23 21 19 15 14
11 8 8 9 8 8 7 9 10 13 16 15 16 15 17 18 18 19 19 21 22 21 24 29 18 15 17
9 8 8 7 8 7 7 8 7 12 16 16 15 15 15 17 17 17 17 21 22 22 20 19 10 17 17
7 8 8 7 6 8 7 5 7 8 11 11 14 12 16 16 16 12 17 20 22 22 21 20 20 15 16
8 8 9 8 8 7 8 7 7 7 4 4 8 8 7 9 10 14 20 20 21 22 19 19 21 12 15
8 9 10 9 8 7 8 8 8 6 8 8 6 9 9 8 10 17 20 19 18 22 18 16 15 11 15
10 10 11 10 10 10 9 8 8 7 9 10 8 9 8 8 18 15 17 15 16 18 19 20 14 11 19
9 8 8 8 8 9 9 10 9 8 8 12 7 8 8 9 17 18 7 14 15 19 19 20 16 14 14
19 20 20 20 18 9 8 8 9 8 6 8 7 7 8 10 9 2 10 14 15 18 19 17 19 20 11
9 12 14 12 18 11 7 9 8 9 8 6 6 4 4 4 6 3 5 12 18 19 20 17 19 9 6
9 8 7 8 6 7 8 7 8 8 8 7 3 4 3 7 7 6 6 7 8 10 14 18 18 15 7
7 8 8 7 7 7 7 6 6 8 8 4 4 3 4 5 7 4 6 6 6 5 8 11 15 16 19
8 7 6 5 5 5 5 6 6 6 7 5 5 6 6 8 8 7 10 6 7 7 4 6 7 8 8
6 6 5 5 6 5 5 4 4 5 6 7 8 5 7 7 6 8 6 6 4 6 6 6 6 5 5
7 7 7 6 7 5 4 3 6 6 6 5 8 11 8 8 8 7 6 6 4 6 6 6 6 6 7
6 6 7 7 7 6 4 6 7 7 7 6 5 4 3 6 13 8 9 8 4 5 5 7 8 5 7
7 7 7 7 10 7 7 7 8 8 7 6 5 5 8 10 4 22 9 7 5 5 7 7 9 8 8
Wind_Direction
297 310 318 311 323 321 320 316 322 327 334 335 336 337 338 344 345 346 348 346 346 341 340 331 194 180 163
297 303 308 315 310 306 313 312 315 314 327 327 329 335 332 335 339 342 347 346 342 338 342 338 201 179 174
290 301 301 305 308 312 310 298 289 322 323 327 328 325 328 331 335 339 343 342 339 336 337 329 236 179 179
280 286 295 308 306 300 308 331 318 312 311 316 326 327 327 326 330 332 344 339 334 328 327 334 330 175 173
279 283 285 295 302 314 304 306 309 293 329 326 332 326 319 329 318 342 334 337 341 333 324 325 331 196 182
281 281 285 290 291 293 296 308 313 314 347 321 331 320 319 302 328 329 327 333 333 345 333 325 319 254 176
282 282 286 289 293 297 301 296 291 301 308 302 311 299 308 318 319 313 319 326 340 344 344 342 315 278 177
263 270 276 281 281 285 285 282 281 281 272 281 291 289 299 301 309 301 324 332 341 341 342 342 332 310 181
266 269 268 272 274 270 268 269 272 272 257 266 284 295 299 288 284 315 356 340 346 340 337 341 350 332 200
271 269 265 259 264 258 264 268 274 287 257 262 269 280 317 308 14 350 352 333 345 340 331 335 348 338 232
271 268 269 266 256 250 246 244 261 259 269 280 277 290 259 280 297 319 312 341 333 320 332 330 332 351 301
262 263 259 256 250 249 240 239 243 253 272 248 270 250 278 283 290 307 309 316 314 320 320 332 331 332 341
271 269 264 257 260 250 256 245 245 245 260 248 247 255 253 265 276 285 298 302 294 284 328 322 323 327 337
282 285 286 277 263 251 246 240 232 245 237 247 248 241 254 255 262 274 270 264 317 307 304 305 305 301 303
277 278 276 276 275 263 240 239 254 262 254 230 240 247 251 258 266 265 272 265 248 276 287 294 297 295 293
277 276 275 275 274 269 254 241 240 239 243 243 233 236 227 237 221 254 263 264 251 258 265 285 291 294 298
274 272 272 271 279 272 261 253 251 245 246 237 215 215 249 261 235 213 234 244 253 259 271 269 281 293 295